Waskish, MN

5:19 PM CDT on July 21, 2017 (GMT -0500)
Waskish Municipal

Weather History for KVWU - January, 2014

Change the Weather History Date:

Thursday, January 30, 2014

  Actual Average (KBDE) Record (KBDE)
Temperature  
Mean Temperature -3 °F -  
Max Temperature 8 °F 19 °F 44 °F (1992)
Min Temperature -14 °F -7 °F -38 °F (1950)
Degree Days  
Heating Degree Days 68    
Moisture  
Dew Point -12 °F    
Average Humidity 70    
Maximum Humidity 84    
Minimum Humidity 60    
Precipitation  
Precipitation 0.00 in - - ()
Sea Level Pressure  
Sea Level Pressure 29.74 in    
Wind  
Wind Speed 8 mph (West)    
Max Wind Speed 16 mph    
Max Gust Speed 20 mph    
Visibility 10 miles    
Events      
Averages and records for this station are not official NWS values.
T = Trace of Precipitation, MM = Missing Value Source: NWS Daily Summary

Daily Weather History Graph

Daily Weather History Graph

Search for Another Location

Airport or City:

Trip Planner

Search our weather history database for the weather conditions in past years. The results will help you decide how hot, cold, wet, or windy it might be!

Date:

Astronomy

Jan. 30, 2014 Rise Set
Actual Time 7:48 AM CST 5:14 PM CST
Civil Twilight 7:15 AM CST 5:48 PM CST
Nautical Twilight 6:37 AM CST 6:25 PM CST
Astronomical Twilight 6:01 AM CST 7:02 PM CST
Moon 7:11 AM CST (1/30) 5:32 PM CST (1/30)
Length of Visible Light 10h 33m
Length of Day
9h 26m
Waning Crescent, 0% of the Moon is Illuminated
Jan 30
Waning Crescent
Jan 30
New
Feb 6
First Quarter
Feb 14
Full
Feb 22
Last Quarter

Hourly Weather History & Observations

Time (CST) Temp. Windchill Dew Point Humidity Pressure Visibility Wind Dir Wind Speed Gust Speed Precip Events Conditions
12:09 AM 8.6 °F -2.6 °F 3.2 °F 79% 29.55 in 10.0 mi WNW 6.9 mph - N/A   Overcast
12:30 AM 8.6 °F -3.7 °F 1.4 °F 73% 29.55 in 10.0 mi WNW 8.1 mph - N/A   Overcast
12:50 AM 8.6 °F -1.3 °F 1.4 °F 73% 29.57 in 10.0 mi WNW 5.8 mph - N/A   Overcast
1:09 AM 8.6 °F -3.7 °F 1.4 °F 73% 29.57 in 10.0 mi West 8.1 mph - N/A   Overcast
1:30 AM 6.8 °F -4.8 °F 1.4 °F 79% 29.57 in 10.0 mi WNW 6.9 mph - N/A   Overcast
1:50 AM 6.8 °F -5.9 °F -0.4 °F 72% 29.57 in 10.0 mi NW 8.1 mph - N/A   Overcast
2:09 AM 5.0 °F -8.1 °F -2.2 °F 72% 29.57 in 10.0 mi WNW 8.1 mph - N/A   Overcast
2:30 AM 5.0 °F -6.9 °F -2.2 °F 72% 29.58 in 10.0 mi NW 6.9 mph - N/A   Mostly Cloudy
2:50 AM 3.2 °F -7.8 °F -2.2 °F 78% 29.58 in 10.0 mi WNW 5.8 mph - N/A   Overcast
3:09 AM 3.2 °F -6.2 °F -4.0 °F 72% 29.58 in 10.0 mi WNW 4.6 mph - N/A   Scattered Clouds
3:30 AM 3.2 °F -9.1 °F -4.0 °F 72% 29.58 in 10.0 mi WNW 6.9 mph - N/A   Clear
3:50 AM 1.4 °F -9.9 °F -4.0 °F 78% 29.59 in 10.0 mi NNW 5.8 mph - N/A   Clear
4:09 AM 1.4 °F -9.9 °F -5.8 °F 72% 29.60 in 10.0 mi NW 5.8 mph - N/A   Clear
4:29 AM -0.4 °F -14.7 °F -7.6 °F 72% 29.61 in 10.0 mi NW 8.1 mph - N/A   Clear
4:50 AM -0.4 °F -17.6 °F -9.4 °F 66% 29.62 in 10.0 mi NW 11.5 mph 16.1 mph N/A   Clear
5:09 AM -2.2 °F -16.8 °F -9.4 °F 71% 29.62 in 10.0 mi NW 8.1 mph - N/A   Clear
5:29 AM -2.2 °F -16.8 °F -9.4 °F 71% 29.63 in 10.0 mi NW 8.1 mph - N/A   Clear
5:50 AM -4.0 °F -16.3 °F -11.2 °F 71% 29.64 in 10.0 mi NNW 5.8 mph - N/A   Clear
6:09 AM -5.8 °F -16.7 °F -11.2 °F 77% 29.64 in 10.0 mi NNW 4.6 mph - N/A   Clear
6:29 AM -5.8 °F -14.5 °F -13.0 °F 71% 29.65 in 10.0 mi NW 3.5 mph - N/A   Clear
6:50 AM -7.6 °F -20.6 °F -13.0 °F 77% 29.66 in 10.0 mi NW 5.8 mph - N/A   Clear
7:09 AM -7.6 °F -18.8 °F -13.0 °F 77% 29.67 in 10.0 mi NW 4.6 mph - N/A   Clear
7:29 AM -7.6 °F -22.1 °F -13.0 °F 77% 29.67 in 10.0 mi NW 6.9 mph - N/A   Clear
7:50 AM -7.6 °F -18.8 °F -14.8 °F 71% 29.68 in 10.0 mi WNW 4.6 mph - N/A   Clear
8:09 AM -7.6 °F -23.4 °F -14.8 °F 71% 29.69 in 10.0 mi NW 8.1 mph - N/A   Clear
8:29 AM -7.6 °F -22.1 °F -14.8 °F 71% 29.70 in 10.0 mi WNW 6.9 mph - N/A   Clear
8:50 AM -7.6 °F -20.6 °F -14.8 °F 71% 29.72 in 10.0 mi WNW 5.8 mph - N/A   Clear
9:09 AM -7.6 °F -20.6 °F -14.8 °F 71% 29.73 in 10.0 mi WNW 5.8 mph - N/A   Clear
9:29 AM -7.6 °F -20.6 °F -14.8 °F 71% 29.73 in 10.0 mi West 5.8 mph - N/A   Clear
9:50 AM -5.8 °F -22.4 °F -14.8 °F 65% 29.74 in 10.0 mi WNW 9.2 mph - N/A   Clear
10:09 AM -7.6 °F -22.1 °F -14.8 °F 71% 29.75 in 10.0 mi WNW 6.9 mph - N/A   Clear
10:29 AM -5.8 °F -21.2 °F -14.8 °F 65% 29.75 in 10.0 mi West 8.1 mph - N/A   Clear
10:50 AM -5.8 °F -18.4 °F -14.8 °F 65% 29.75 in 10.0 mi WNW 5.8 mph - N/A   Clear
11:09 AM -4.0 °F -19.0 °F -14.8 °F 60% 29.76 in 10.0 mi WNW 8.1 mph - N/A   Clear
11:29 AM -4.0 °F -20.2 °F -14.8 °F 60% 29.75 in 10.0 mi West 9.2 mph - N/A   Clear
11:50 AM -4.0 °F -20.2 °F -13.0 °F 65% 29.75 in 10.0 mi West 9.2 mph - N/A   Clear
12:09 PM -2.2 °F -18.9 °F -13.0 °F 60% 29.75 in 10.0 mi West 10.4 mph - N/A   Clear
12:29 PM -2.2 °F -19.9 °F -13.0 °F 60% 29.75 in 10.0 mi West 11.5 mph - N/A   Clear
12:50 PM -2.2 °F -18.9 °F -13.0 °F 60% 29.75 in 10.0 mi West 10.4 mph - N/A   Clear
1:09 PM -2.2 °F -19.9 °F -13.0 °F 60% 29.76 in 10.0 mi West 11.5 mph - N/A   Clear
1:29 PM -2.2 °F -20.7 °F -13.0 °F 60% 29.76 in 10.0 mi West 12.7 mph - N/A   Clear
1:50 PM -2.2 °F -22.9 °F -13.0 °F 60% 29.76 in 10.0 mi West 16.1 mph 19.6 mph N/A   Clear
2:09 PM -2.2 °F -20.7 °F -13.0 °F 60% 29.76 in 10.0 mi West 12.7 mph 17.3 mph N/A   Clear
2:29 PM -2.2 °F -20.7 °F -13.0 °F 60% 29.76 in 10.0 mi West 12.7 mph - N/A   Clear
2:50 PM -2.2 °F -21.5 °F -13.0 °F 60% 29.77 in 10.0 mi West 13.8 mph - N/A   Clear
3:09 PM -2.2 °F -19.9 °F -13.0 °F 60% 29.78 in 10.0 mi West 11.5 mph 18.4 mph N/A   Clear
3:29 PM -4.0 °F -21.2 °F -13.0 °F 65% 29.78 in 10.0 mi West 10.4 mph - N/A   Clear
3:50 PM -4.0 °F -21.2 °F -14.8 °F 60% 29.79 in 10.0 mi West 10.4 mph - N/A   Clear
4:09 PM -5.8 °F -24.4 °F -14.8 °F 65% 29.79 in 10.0 mi West 11.5 mph - N/A   Clear
4:30 PM -5.8 °F -23.4 °F -14.8 °F 65% 29.80 in 10.0 mi WSW 10.4 mph 16.1 mph N/A   Clear
4:49 PM -7.6 °F -27.5 °F -14.8 °F 71% 29.81 in 10.0 mi WSW 12.7 mph - N/A   Clear
5:09 PM -7.6 °F -26.6 °F -14.8 °F 71% 29.81 in 10.0 mi West 11.5 mph - N/A   Clear
5:30 PM -7.6 °F -24.6 °F -16.6 °F 65% 29.82 in 10.0 mi West 9.2 mph - N/A   Scattered Clouds
5:49 PM -9.4 °F -27.9 °F -16.6 °F 71% 29.83 in 10.0 mi West 10.4 mph - N/A   Clear
6:09 PM -9.4 °F -28.9 °F -16.6 °F 71% 29.84 in 10.0 mi WSW 11.5 mph 16.1 mph N/A   Clear
6:30 PM -9.4 °F -27.9 °F -16.6 °F 71% 29.85 in 10.0 mi WSW 10.4 mph - N/A   Clear
6:49 PM -11.2 °F -27.8 °F -16.6 °F 77% 29.85 in 10.0 mi West 8.1 mph - N/A   Clear
7:09 PM -11.2 °F -27.8 °F -18.4 °F 70% 29.85 in 10.0 mi West 8.1 mph - N/A   Clear
7:30 PM -11.2 °F -29.0 °F -18.4 °F 70% 29.86 in 10.0 mi WSW 9.2 mph - N/A   Clear
7:49 PM -11.2 °F -30.1 °F -18.4 °F 70% 29.87 in 10.0 mi WSW 10.4 mph - N/A   Clear
8:09 PM -13.0 °F -32.4 °F -18.4 °F 77% 29.87 in 10.0 mi WSW 10.4 mph - N/A   Clear
8:30 PM -13.0 °F -31.3 °F -18.4 °F 77% 29.87 in 10.0 mi WSW 9.2 mph - N/A   Clear
8:49 PM -13.0 °F -31.3 °F -18.4 °F 77% 29.87 in 10.0 mi WSW 9.2 mph - N/A   Clear
9:09 PM -14.8 °F -34.6 °F -18.4 °F 84% 29.88 in 10.0 mi SW 10.4 mph - N/A   Clear
9:30 PM -14.8 °F -30.8 °F -18.4 °F 84% 29.89 in 10.0 mi WSW 6.9 mph - N/A   Clear
9:49 PM -11.2 °F -31.1 °F -18.4 °F 70% 29.90 in 10.0 mi WSW 11.5 mph - N/A   Clear
10:09 PM -13.0 °F -33.4 °F -18.4 °F 77% 29.90 in 10.0 mi SW 11.5 mph - N/A   Mostly Cloudy
10:30 PM -11.2 °F -30.1 °F -16.6 °F 77% 29.90 in 10.0 mi SW 10.4 mph - N/A   Overcast
10:49 PM -13.0 °F -30.0 °F -18.4 °F 77% 29.90 in 10.0 mi SW 8.1 mph - N/A   Overcast
11:09 PM -14.8 °F -30.8 °F -18.4 °F 84% 29.90 in 10.0 mi SW 6.9 mph - N/A   Overcast
11:30 PM -13.0 °F -28.6 °F -18.4 °F 77% 29.90 in 10.0 mi SW 6.9 mph - N/A   Overcast
11:49 PM -13.0 °F -27.0 °F -18.4 °F 77% 29.90 in 10.0 mi SW 5.8 mph - N/A   Overcast